カタログに戻る

ONEWEB-0613

運用中通信PO
NORAD 56071·PAYLOAD·🇬🇧 United Kingdom

打ち上げ Mar 26, 2023 から Satish Dhawan Space Centre

Loading…

次のパス (今後24時間)

TLE

最新Source: CelesTrak SupGP

元期: Sep 14, 2026, 18:46 UTC

1 56071C 23043AB  26257.78213380  .00001979  00000+0  52639-2 0  2574
2 56071  87.8984 241.3559 0002023  78.0969 318.0254 13.15547017    18

AllMySatでONEWEB-0613をリアルタイム追跡

Download on the App Store